CW7724 Weather Reports


time (UTC)temp
C
wind
direction
speed
KPH
gust
KPH
rain 1hr
cm
rain 24hr
cm
rain mn
cm
humidity
%
barometer
mb
20260502184545 9 113 0.0 0.0 0.00 0.00 0.00 65 1017.7
20260502183048 8 208 0.0 1.6 0.00 0.00 0.00 67 1018.0
20260502181514 8 203 0.0 0.0 0.00 0.00 0.00 66 1018.2
20260502163100 7 136 0.0 4.8 0.00 0.00 0.00 72 1018.6
20260502161605 7 96 0.0 4.8 0.00 0.00 0.00 73 1018.4
20260502151547 6 113 1.6 11.3 0.00 0.03 0.00 72 1018.0
20260502123042 3 140 0.0 0.0 0.00 0.36 0.00 88 1016.9
20260502121541 3 140 0.0 0.0 0.00 0.36 0.00 87 1016.8
20260502114535 3 140 0.0 0.0 0.00 0.36 0.00 87 1016.4
20260502113046 3 140 0.0 0.0 0.00 0.71 0.00 87 1016.3
20260502111535 3 190 0.0 0.0 0.00 0.71 0.00 87 1016.0
20260502110035 3 53 0.0 0.0 0.00 0.71 0.00 87 1015.5
20260502104529 3 47 0.0 0.0 0.00 0.71 0.00 87 1015.7
20260502103027 4 30 0.0 0.0 0.00 1.68 0.00 86 1015.9
20260502101528 4 30 0.0 0.0 0.00 1.68 0.00 85 1016.1
20260502091523 4 16 0.0 0.0 0.00 1.80 0.00 82 1015.7
20260502070056 4 53 0.0 0.0 0.00 1.80 0.00 83 1015.1
20260502064551 4 10 0.0 0.0 0.00 1.80 0.00 83 1015.2
20260502063043 4 350 0.0 0.0 0.00 1.80 0.00 83 1015.2
20260502061534 4 334 0.0 0.0 0.00 1.80 0.00 83 1015.3
20260502060032 4 50 0.0 0.0 0.00 1.80 0.00 82 1015.3
20260502054535 4 51 0.0 0.0 0.00 1.80 0.00 82 1015.2
20260502053030 4 59 0.0 0.0 0.00 1.80 1.80 82 1015.3
20260502051527 4 67 0.0 0.0 0.00 1.80 1.80 81 1015.3
20260502050036 4 19 0.0 0.0 0.00 1.80 1.80 81 1015.2
20260502044524 5 106 0.0 0.0 0.00 1.80 1.80 82 1015.0
20260502043023 4 337 0.0 0.0 0.00 1.80 1.80 83 1015.0
20260502041526 4 298 0.0 0.0 0.00 1.80 1.80 83 1014.9
20260502040019 4 338 0.0 0.0 0.00 1.80 1.80 83 1014.6
20260502034522 4 29 0.0 0.0 0.00 1.80 1.80 82 1014.6
20260502033016 4 73 0.0 0.0 0.00 1.80 1.80 82 1014.3
20260502031513 4 5 0.0 0.0 0.00 1.80 1.80 82 1014.0
20260502030011 4 9 0.0 0.0 0.00 1.80 1.80 82 1013.7
20260502024509 4 71 0.0 0.0 0.00 1.80 1.80 82 1013.5
20260502023007 4 22 0.0 0.0 0.00 1.80 1.80 82 1013.0
20260502021502 4 41 0.0 0.0 0.00 1.80 1.80 82 1012.8
20260502020001 5 53 0.0 0.0 0.00 1.80 1.80 81 1012.4
20260502014600 5 49 0.0 0.0 0.00 1.80 1.80 80 1012.3
20260502013105 5 38 0.0 0.0 0.00 1.80 1.80 80 1012.3
20260502011554 5 17 0.0 0.0 0.00 1.80 1.80 80 1011.8
20260502010052 5 65 0.0 0.0 0.00 1.80 1.80 79 1011.7
20260502004550 5 59 0.0 0.0 0.00 1.80 1.80 79 1011.1
20260502003049 6 88 0.0 0.0 0.00 1.83 1.80 78 1010.9
20260502001551 6 355 0.0 9.7 0.00 1.83 1.80 76 1010.8
20260502000101 7 321 1.6 24.1 0.00 1.83 1.80 74 1010.6
20260501234541 7 40 1.6 19.3 0.00 1.83 1.80 76 1010.5
20260501233040 8 333 0.0 30.6 0.00 1.83 1.80 75 1010.2
20260501231508 8 351 0.0 11.3 0.00 1.83 1.80 76 1010.1
20260501230008 8 360 3.2 25.7 0.00 1.83 1.80 72 1010.1
20260501224505 8 11 0.0 20.9 0.00 1.83 1.80 76 1009.8
20260501223002 8 42 0.0 30.6 0.00 1.83 1.80 72 1009.6
20260501221503 10 11 3.2 25.7 0.00 1.83 1.80 69 1009.4
20260501220100 9 63 3.2 25.7 0.00 1.83 1.80 69 1009.0
20260501214557 8 82 0.0 9.7 0.00 1.83 1.80 74 1008.9
20260501213056 8 101 1.6 32.2 0.00 1.83 1.80 70 1009.1
20260501211554 9 333 1.6 19.3 0.00 1.83 1.80 71 1009.2
20260501210053 8 28 0.0 22.5 0.00 1.83 1.80 72 1009.2
20260501204552 8 66 1.6 19.3 0.00 1.83 1.80 72 1009.5
20260501203052 8 24 3.2 19.3 0.00 1.83 1.80 73 1009.4
20260501201549 8 61 0.0 11.3 0.00 1.83 1.80 73 1009.3
20260501200049 7 355 1.6 12.9 0.00 1.83 1.80 73 1009.2
20260501194555 8 12 0.0 19.3 0.00 1.83 1.80 73 1009.1
20260501193045 8 21 1.6 9.7 0.00 1.83 1.80 72 1008.8
20260501191548 8 65 3.2 32.2 0.00 1.83 1.80 72 1008.6
20260501190040 8 345 0.0 27.4 0.00 1.83 1.80 74 1008.6